RH
12 13 14 16 21 22 23 25 22 24 26 40 40 47 61 51 54 49 54 60 69 88 96 73 67 67 63 64 68 71 70 66 63 52 39 32 29 28 38 36 33 30 28 27 24 24 23 20 19
14 18 18 20 24 29 24 27 29 27 34 42 35 35 41 48 55 63 55 44 46 60 95 82 72 69 71 73 75 77 76 73 66 52 40 36 33 31 38 38 35 31 29 27 28 28 26 23 22
14 17 17 24 30 33 27 29 28 31 32 38 36 35 32 48 50 47 39 36 46 60 84 75 75 83 84 81 84 87 84 78 66 48 39 40 37 34 38 38 37 34 31 32 33 33 29 28 24
18 21 20 24 26 22 26 27 27 25 40 46 43 37 63 49 48 43 45 54 53 78 80 87 86 80 81 85 86 88 88 78 63 47 42 43 40 39 42 39 39 35 36 38 40 38 33 30 27
20 20 25 29 27 27 30 27 25 35 50 51 53 52 79 86 67 59 45 52 62 78 82 94 95 93 93 87 88 94 87 72 58 47 42 45 44 47 47 43 41 39 40 43 44 41 38 32 28
21 24 30 32 28 32 32 25 29 33 46 77 79 77 67 63 73 65 54 56 73 77 80 74 83 96 98 97 97 96 79 65 55 50 50 50 47 47 48 46 45 41 45 48 48 46 40 34 33
18 23 28 29 28 29 40 32 36 48 47 47 52 58 76 94 78 73 64 71 76 83 81 83 72 78 98 98 97 95 77 62 54 51 52 52 48 47 49 49 47 47 50 52 58 49 43 38 38
21 21 25 30 29 34 33 34 40 38 37 42 58 64 71 59 69 74 72 74 74 78 83 77 67 73 88 96 94 91 76 68 60 56 55 54 52 52 55 56 54 50 57 62 56 52 44 43 43
16 24 32 35 34 42 34 32 41 37 41 57 86 76 57 64 79 76 73 75 73 76 78 79 77 77 79 85 89 89 81 67 60 61 65 61 58 61 61 59 57 63 62 61 59 55 48 45 43
21 25 36 39 33 30 29 36 45 47 49 49 53 81 76 68 71 76 75 74 75 77 78 79 81 85 88 89 87 86 86 78 79 71 66 65 65 66 68 65 64 65 68 65 59 54 52 49 42
27 26 35 33 33 30 30 38 44 42 46 54 59 73 76 67 62 69 75 73 72 75 79 83 86 94 94 90 88 84 81 82 72 68 67 68 68 71 70 68 68 70 66 59 57 55 56 44 40
33 28 22 26 34 32 33 35 39 49 57 53 53 71 61 63 62 65 70 70 73 77 83 86 90 88 88 98 93 87 87 81 76 71 72 72 72 72 71 68 68 68 60 63 66 62 55 45 36
34 31 25 32 29 27 35 42 40 67 68 59 62 58 52 60 64 65 66 69 75 79 84 84 88 93 94 92 96 90 84 79 74 75 80 76 72 71 69 65 69 67 70 74 67 59 49 44 33
29 35 28 28 35 29 33 37 42 73 80 60 57 48 54 66 66 64 71 79 82 85 87 92 95 97 95 96 97 93 83 75 80 80 79 72 71 68 69 68 72 75 78 74 64 54 46 41 33
26 25 25 37 42 43 40 39 47 57 68 72 52 46 43 48 62 73 82 83 86 93 92 98 98 95 95 95 92 86 82 81 81 80 74 71 69 69 66 66 76 81 82 74 60 49 46 42 32
27 27 33 40 43 43 44 47 41 49 69 72 52 52 49 53 53 58 71 69 77 85 90 92 97 93 88 88 87 84 85 83 79 72 65 61 63 62 62 68 80 82 82 74 62 51 48 42 33
34 36 35 37 43 46 47 53 51 51 64 85 55 55 53 49 54 48 54 59 62 69 78 84 87 91 83 86 81 86 73 70 64 60 57 55 56 58 64 72 75 83 80 73 63 57 48 43 37
44 44 40 33 47 45 41 53 56 60 57 73 59 54 47 54 54 55 53 55 55 48 46 52 61 68 73 64 68 63 57 54 54 52 52 54 57 60 66 75 81 84 77 72 65 54 51 49 43
41 38 41 43 44 43 35 41 54 60 71 67 58 51 52 53 51 48 49 41 41 44 43 45 49 49 54 49 48 45 45 47 49 53 58 56 61 64 70 75 78 79 74 71 62 56 53 54 52
32 30 35 39 45 38 30 42 58 50 48 55 55 49 50 49 48 45 41 38 37 41 40 41 43 43 43 42 38 41 46 48 50 53 53 61 65 67 74 74 79 75 74 72 64 64 66 72 67
30 27 45 45 45 39 37 38 47 50 55 46 53 52 53 47 45 44 40 43 46 43 42 41 38 37 40 43 43 45 49 49 50 53 55 60 59 59 68 68 77 79 81 82 77 79 82 77 76
39 35 41 46 46 44 48 49 52 48 44 36 35 46 39 41 42 41 41 39 39 38 40 43 43 43 44 49 55 53 48 47 51 53 58 58 60 61 64 69 79 85 86 90 90 95 90 87 83
47 41 49 40 38 45 48 58 55 41 46 43 43 34 34 32 37 39 36 36 37 37 38 40 45 48 46 46 50 53 49 48 49 55 63 66 67 66 70 73 80 84 89 92 94 96 95 96 94
42 40 40 41 42 46 46 52 54 47 45 39 41 41 37 36 40 49 50 47 47 48 46 42 42 43 50 57 56 56 55 53 52 59 64 68 77 81 81 80 80 85 90 92 95 96 97 91 96
39 40 45 52 53 49 51 50 49 46 45 45 41 41 43 42 43 47 50 49 48 49 49 50 48 50 52 57 59 59 58 61 66 64 62 66 80 79 67 74 79 87 89 91 96 99 93 98 98
37 37 44 67 85 74 60 41 40 41 42 36 32 31 42 49 47 44 47 49 49 49 48 52 54 54 57 58 60 67 67 65 66 64 58 60 66 67 67 65 80 82 89 93 98 95 99 97 99
54 49 37 73 73 84 57 40 32 35 35 30 32 36 38 38 43 47 48 54 53 51 47 50 51 54 58 58 62 59 64 67 84 81 58 66 76 71 73 79 77 84 88 93 90 94 99 97 97
41 48 48 56 82 61 38 36 43 41 42 36 32 33 35 41 43 42 53 54 54 52 49 50 53 55 58 58 55 55 57 61 62 70 65 83 82 75 80 79 85 84 82 79 75 98 98 95 94
35 46 51 48 52 59 54 53 51 47 42 32 34 33 34 36 35 38 47 60 59 63 61 55 56 61 63 62 63 61 63 65 73 82 79 66 75 80 81 74 77 77 76 68 72 84 92 97 85
38 33 48 52 58 52 60 58 48 47 44 41 35 35 36 36 35 37 38 43 58 63 63 68 63 63 67 70 78 77 84 85 75 63 68 72 77 81 77 74 72 72 71 69 73 84 82 79 71